SCP
1 1 0 0 0 0 0 0 0 0 0 1 1 1 1 1 2 2 1 1 1 1 1 1 1 1 1 1 1 1 1 1 1 1 1 0 0 0 0 0 0 0 0 0 0 0 0 0 0
0 0 0 0 0 0 0 0 0 0 1 1 1 1 1 2 2 2 1 1 1 1 1 1 1 1 1 1 1 1 1 1 1 1 1 0 0 0 0 0 0 0 0 0 0 0 0 0 0
0 0 0 0 0 0 0 0 0 1 1 1 1 1 1 2 2 2 1 1 1 1 1 1 1 1 1 1 1 1 1 1 1 1 1 0 0 0 0 0 0 0 0 0 0 0 0 0 0
0 0 0 0 0 0 0 0 0 1 1 1 1 1 1 1 2 2 2 1 1 1 1 1 1 1 1 1 1 1 1 1 1 1 1 0 0 0 0 0 0 0 0 0 0 0 0 0 0
0 0 0 0 0 0 0 0 1 1 1 1 1 1 1 1 2 2 2 2 2 1 1 1 1 1 1 1 1 1 1 1 1 1 1 1 0 0 0 0 0 0 0 0 0 0 0 0 0
0 0 0 0 0 0 0 0 1 1 1 1 2 2 1 2 2 3 3 2 2 2 2 2 1 1 1 1 1 1 1 1 1 1 1 1 0 0 0 0 0 0 0 0 0 0 0 0 0
0 0 0 0 0 0 0 0 1 2 2 2 2 2 2 2 3 3 3 3 2 2 2 2 2 1 1 1 1 1 1 1 1 1 1 1 1 0 0 0 0 0 0 0 0 0 0 0 0
0 0 0 0 0 0 0 1 1 2 2 2 2 2 2 3 4 5 5 4 3 3 3 3 2 1 1 1 1 1 1 1 1 1 1 1 0 0 0 0 0 0 0 0 0 0 0 0 0
0 0 0 0 0 0 0 1 1 2 2 2 2 2 3 5 7 7 6 5 4 4 3 3 2 2 1 1 1 1 1 1 1 1 1 1 0 0 0 0 0 0 0 0 0 0 0 0 0
0 0 0 0 0 0 0 1 1 2 2 2 2 4 6 7 8 8 8 6 5 4 4 3 3 2 2 2 2 2 2 2 1 1 1 1 1 0 0 0 0 0 0 0 0 0 0 0 0
0 0 0 0 0 0 0 1 1 2 2 2 3 5 7 8 8 9 8 6 5 5 4 4 3 3 3 2 2 2 2 2 2 1 1 1 1 1 1 0 0 0 0 0 0 0 0 0 0
0 0 0 0 0 0 0 1 1 1 2 2 3 5 7 7 8 8 7 6 5 5 4 4 4 4 3 3 3 3 2 2 2 1 1 1 1 1 1 0 0 0 0 0 0 0 0 0 0
0 0 0 0 0 0 0 1 1 1 2 3 4 4 5 6 6 7 6 6 5 5 4 4 4 4 4 3 3 3 2 2 2 1 1 1 1 1 1 0 0 0 0 0 0 0 0 0 0
0 0 0 0 0 0 0 0 1 2 3 3 4 3 4 5 6 6 6 6 5 4 4 3 4 4 3 3 3 3 3 2 2 2 1 1 1 1 1 0 0 0 0 0 0 0 0 0 0
0 0 0 0 0 0 0 0 1 2 3 3 3 3 3 4 5 5 5 5 5 4 3 3 3 4 3 3 2 2 2 2 2 2 1 1 1 1 1 0 0 0 0 0 0 0 0 0 0
0 0 0 0 0 0 0 0 1 2 2 3 3 3 3 4 4 4 4 4 4 4 3 3 3 4 3 2 2 2 2 1 1 1 1 1 1 1 0 0 0 0 0 0 0 0 0 0 0
0 0 0 0 0 0 0 0 1 2 2 2 2 3 3 4 4 4 4 4 4 3 3 3 3 3 3 2 2 2 1 1 1 1 1 1 1 1 0 0 0 0 0 0 0 0 0 0 0
0 0 0 0 0 0 0 0 1 2 2 2 2 3 3 4 4 4 4 4 3 3 3 3 3 3 2 2 1 1 1 1 1 1 1 1 1 1 0 0 0 0 0 0 0 0 0 0 0
0 0 0 0 0 0 0 0 1 1 2 2 2 3 4 4 5 5 5 4 3 3 3 2 2 2 2 2 1 1 2 1 1 1 1 1 1 1 1 0 0 0 0 0 0 0 0 0 0
0 0 0 0 0 0 0 0 1 1 2 2 3 3 4 5 5 4 4 4 3 3 3 3 2 2 2 2 2 2 2 1 1 1 1 1 1 1 1 1 1 0 0 0 0 0 0 0 0
0 0 0 0 0 0 0 0 1 1 1 2 2 3 4 5 4 4 4 4 3 3 3 3 2 2 2 2 2 1 1 1 1 1 1 1 1 1 1 1 1 1 1 1 0 0 0 0 0
0 0 0 0 0 0 0 0 0 1 1 1 2 2 4 4 4 4 3 3 3 3 3 3 2 2 2 2 2 1 1 1 2 2 2 2 1 1 1 1 1 1 1 1 1 1 0 0 0
0 0 0 0 0 0 0 0 0 0 1 1 1 2 3 3 3 3 3 3 3 2 2 2 2 2 2 2 1 1 1 1 2 2 2 2 2 2 1 1 1 1 1 1 1 1 1 0 0
0 0 0 0 0 0 0 0 0 0 0 0 1 1 2 2 2 2 2 2 2 2 2 2 2 2 2 2 1 1 1 1 1 1 2 2 2 2 2 1 1 2 2 2 1 1 1 0 0
0 0 0 0 0 0 0 0 0 0 0 0 0 1 1 1 1 1 1 1 1 1 1 1 2 2 2 1 1 1 1 1 1 1 1 2 2 2 2 2 2 2 2 2 2 1 1 1 0
0 0 0 0 0 0 0 0 0 0 0 0 0 0 1 1 1 1 1 1 1 1 1 1 1 1 1 1 1 1 1 1 0 0 1 1 1 1 2 2 2 2 2 1 1 1 1 1 0
0 0 0 0 0 0 0 0 0 0 0 0 0 1 1 1 1 1 1 1 1 1 1 1 1 1 1 1 1 1 1 1 1 0 0 0 1 1 1 1 1 1 1 1 1 1 1 1 1
0 0 0 0 0 0 0 0 0 0 0 0 0 1 1 1 1 1 1 1 1 1 1 1 1 1 1 1 1 1 1 1 1 0 0 0 0 0 0 1 1 1 1 1 1 1 1 1 1
0 0 0 0 0 0 0 0 0 0 0 0 0 0 0 1 1 1 1 1 1 1 2 2 1 1 1 1 1 1 1 1 1 0 0 0 0 0 0 0 0 0 1 1 1 1 1 1 1
0 0 0 0 0 0 0 0 0 0 0 0 0 0 0 0 1 1 1 1 1 1 2 2 1 1 1 1 1 1 1 1 1 0 0 0 0 0 0 0 0 0 0 1 1 1 1 1 0
Wind_Speed
5 4 2 1 3 4 2 3 2 1 1 1 3 5 6 4 4 2 3 11 15 14 12 15 17 17 17 16 16 16 16 16 16 16 15 15 14 13 13 13 13 13 13 13 13 14 14 14 14
4 4 1 2 4 3 4 3 1 1 2 4 4 4 4 2 3 7 7 10 15 14 11 12 18 18 17 16 16 16 16 16 16 15 15 14 14 13 13 13 13 13 13 13 13 14 14 14 14
4 3 2 3 2 2 3 2 0 1 2 2 3 3 3 4 6 8 8 14 13 12 10 13 20 18 17 17 16 16 16 15 15 15 14 14 13 13 13 13 12 13 13 13 13 13 13 13 13
2 2 3 4 1 4 4 3 1 3 1 1 3 3 3 2 6 8 14 15 14 11 9 13 20 19 18 17 16 16 16 15 15 14 14 13 12 12 12 12 12 12 12 13 12 12 13 12 12
3 3 4 3 4 5 5 5 5 5 3 1 3 3 2 3 7 14 15 15 14 11 9 12 19 19 18 17 17 16 15 15 14 14 13 13 12 12 12 12 12 12 12 12 12 12 12 11 11
3 4 4 3 6 6 4 4 4 4 3 2 4 4 1 3 9 13 14 13 12 12 10 11 19 19 18 17 17 16 15 15 14 14 13 12 12 12 11 11 11 11 11 11 11 11 11 10 10
3 3 1 2 5 6 3 0 4 4 4 4 5 5 2 3 7 11 11 11 10 10 9 8 10 14 17 17 16 16 15 15 14 14 13 12 12 11 11 10 10 11 10 10 11 10 10 9 9
4 4 0 2 4 5 3 2 0 4 3 3 5 6 5 6 10 11 10 10 10 9 8 8 7 8 8 10 16 16 15 15 14 14 13 13 12 11 11 9 9 10 10 10 10 10 9 9 9
4 4 2 4 4 5 3 2 1 1 4 2 2 2 5 15 15 14 11 9 10 10 7 7 7 7 6 7 12 13 14 14 13 11 13 10 5 5 6 8 9 9 9 9 9 9 8 8 7
4 3 7 6 4 5 6 3 2 2 2 1 2 4 12 17 16 17 16 15 14 12 10 7 8 7 7 7 6 4 5 6 5 4 5 4 4 3 5 6 8 8 8 8 8 8 7 6 3
5 6 5 6 6 6 5 3 3 5 4 7 8 11 16 16 15 15 15 15 14 12 11 9 8 8 7 4 4 3 3 3 4 5 5 4 4 3 3 2 3 3 5 3 4 4 3 3 3
4 7 6 6 5 4 4 2 2 6 8 7 9 15 17 17 16 15 14 14 13 12 11 9 9 8 6 5 4 4 3 3 3 4 5 4 3 2 2 2 2 2 2 2 2 2 3 3 3
4 6 5 7 8 5 3 3 4 6 5 4 11 14 16 16 14 11 9 11 12 13 13 11 10 9 7 6 5 5 4 4 4 4 4 5 4 3 3 2 2 2 2 2 2 2 2 2 3
4 5 7 7 6 2 2 2 2 4 3 8 11 12 13 14 13 11 10 12 12 13 12 11 11 10 8 6 5 4 4 4 4 4 5 5 4 3 3 3 2 2 2 2 2 2 2 2 2
3 5 7 4 2 1 1 4 4 3 6 8 10 11 11 10 11 12 13 13 13 12 11 10 10 9 9 7 6 5 4 4 4 4 5 5 4 4 4 3 3 2 2 3 2 3 2 2 2
3 3 4 6 3 1 2 5 6 3 8 8 8 9 9 9 10 10 10 9 10 10 11 10 10 9 9 7 6 4 4 4 3 3 4 5 5 5 4 3 3 3 3 3 3 2 2 2 2
4 2 4 7 3 2 2 5 6 2 7 7 7 7 7 7 7 7 9 9 9 10 11 11 9 10 9 8 6 5 4 4 3 3 3 4 5 5 4 3 3 4 3 3 3 2 2 2 2
2 2 4 6 5 5 4 5 5 2 5 6 6 6 7 8 8 7 9 9 8 8 9 9 9 9 8 6 5 4 4 3 3 3 4 5 5 5 4 3 4 4 3 3 2 3 2 2 2
2 3 7 9 5 3 4 5 5 2 3 4 5 6 7 7 5 6 8 9 9 8 8 9 9 9 8 6 6 6 5 4 3 3 5 6 5 6 5 4 4 4 4 4 4 3 3 2 1
3 4 7 9 3 1 3 5 3 2 3 5 7 7 8 7 6 7 8 8 9 10 9 9 10 10 10 7 6 4 4 4 3 3 4 5 6 6 6 5 5 4 4 4 3 3 3 2 1
5 5 6 6 6 3 1 5 4 3 1 1 3 5 7 9 9 8 8 8 9 9 10 9 9 9 9 8 5 5 3 3 2 3 3 4 6 6 5 6 5 5 5 4 4 4 4 3 1
6 7 7 5 2 4 1 4 8 3 3 3 4 5 6 7 7 8 9 9 10 10 9 8 9 9 9 9 8 9 7 5 5 4 4 4 5 6 6 6 6 5 4 5 4 4 3 4 3
8 3 3 3 3 2 2 2 9 2 4 6 5 6 5 6 7 8 9 9 8 8 8 7 8 9 10 10 10 9 6 4 3 4 5 4 4 5 6 6 6 5 4 5 4 4 4 3 3
4 4 5 5 4 1 3 3 8 5 6 5 4 4 4 5 5 5 5 6 6 6 7 7 8 8 9 10 9 9 8 7 7 6 6 4 3 3 5 5 5 5 5 5 5 4 5 3 3
4 5 4 5 4 5 2 2 10 7 5 4 4 4 4 5 5 6 7 7 6 7 8 8 8 8 8 9 9 8 8 8 9 8 7 6 4 3 5 5 5 5 5 5 5 5 4 4 4
6 10 8 5 5 5 2 5 9 4 3 2 2 3 4 5 5 6 7 7 6 7 7 8 8 8 8 8 8 7 7 6 5 6 6 6 5 5 5 6 6 6 6 6 5 4 4 4 4
7 6 7 8 2 1 5 7 10 2 2 1 2 4 5 5 6 7 7 7 7 7 7 8 8 8 8 8 7 6 7 6 6 6 6 5 4 5 6 6 6 6 6 6 6 4 4 4 4
6 9 6 7 6 3 4 4 5 5 4 2 3 4 4 4 6 6 6 7 6 6 6 7 7 7 7 7 7 6 6 6 6 6 7 6 6 5 7 6 6 5 5 6 5 4 4 4 3
4 4 5 5 5 7 3 8 7 6 5 5 5 5 6 6 7 7 6 6 6 6 6 6 6 6 7 7 7 6 6 5 5 6 7 7 6 7 7 6 6 6 6 6 5 5 5 5 4
4 7 8 6 4 4 4 9 5 4 4 4 3 4 5 6 7 7 6 7 7 7 6 7 6 6 6 7 6 6 6 6 6 6 6 6 6 7 7 7 6 6 6 6 6 6 5 6 5
Wind_Direction
190 153 147 148 57 43 324 282 264 320 57 107 130 132 140 145 170 186 128 140 138 145 152 153 150 146 141 137 134 131 129 127 126 126 126 126 127 127 125 123 122 120 117 115 114 112 111 111 112
147 154 167 66 73 35 306 286 310 279 148 116 93 98 107 102 96 116 132 145 143 146 149 152 152 149 146 142 139 136 133 131 129 129 129 129 129 129 128 125 124 122 119 118 115 114 113 113 114
163 181 101 71 86 187 270 294 269 82 155 135 104 78 110 138 138 146 150 144 142 145 147 157 155 153 150 147 144 141 138 135 134 132 131 131 131 131 128 125 124 123 122 120 117 116 116 117 118
138 64 56 64 281 234 234 248 207 157 258 51 115 96 70 92 148 147 142 144 143 145 148 160 157 156 153 151 148 145 143 141 138 136 134 133 132 129 127 127 127 125 124 122 120 120 120 120 120
76 79 51 8 287 261 241 228 201 186 200 149 127 128 79 23 111 132 143 147 147 145 150 161 159 158 157 154 152 150 148 145 143 140 138 136 133 131 129 129 128 127 126 124 123 122 121 123 123
58 64 65 323 294 284 268 213 174 177 173 149 138 130 92 92 126 141 145 146 147 148 150 159 161 160 160 158 156 155 153 150 148 145 144 140 137 134 133 132 131 129 128 126 126 123 122 122 122
103 91 131 266 288 298 299 237 166 165 174 183 149 132 129 135 140 140 139 138 142 148 150 154 159 161 163 161 161 159 156 155 153 150 147 143 140 138 138 136 134 133 131 129 127 124 121 122 122
128 100 10 270 269 280 299 359 144 162 185 132 128 155 186 168 140 130 129 134 143 149 153 151 149 152 156 161 164 162 160 159 157 154 151 148 146 144 140 135 138 136 136 134 130 125 121 122 124
100 77 245 237 236 271 306 338 335 115 115 112 131 166 159 141 139 136 139 143 154 158 155 149 146 146 146 154 167 163 163 163 161 158 157 148 126 124 132 142 142 140 139 136 132 128 123 118 122
109 165 232 226 224 269 295 278 207 126 129 157 102 95 131 144 152 156 161 164 167 168 165 156 152 150 150 163 157 151 151 151 143 137 136 119 117 129 135 158 149 146 140 135 130 126 115 101 100
173 209 243 256 248 260 280 279 176 153 210 211 187 157 153 157 164 169 172 171 170 168 168 163 158 154 155 151 144 136 128 131 131 132 127 125 118 118 114 117 130 122 120 104 107 100 90 97 106
200 247 245 271 273 266 241 224 176 190 222 214 171 155 160 167 174 179 178 175 165 168 172 166 161 158 157 148 144 139 138 139 141 141 139 135 131 129 132 126 120 107 103 108 99 99 101 103 120
230 266 264 263 285 262 230 224 203 224 237 137 135 151 169 175 179 178 175 169 167 171 172 170 166 165 161 151 156 155 151 152 151 147 150 148 147 152 149 143 137 135 125 125 125 118 115 106 113
247 264 282 282 286 274 196 253 197 238 155 137 148 165 176 178 177 172 169 172 175 176 174 169 170 170 162 161 159 158 158 155 154 158 162 159 157 159 157 154 154 153 148 142 140 133 123 112 112
295 303 313 298 299 280 77 311 253 203 144 151 165 172 177 179 179 184 183 181 177 174 169 168 170 167 163 165 163 158 159 158 164 167 166 165 164 163 162 161 167 170 152 135 118 109 99 108 108
354 5 323 303 315 321 96 278 282 156 155 168 175 174 176 181 188 189 183 173 168 165 165 167 175 169 167 166 162 159 162 162 166 163 165 172 171 165 160 165 177 164 145 135 130 121 105 107 116
20 353 302 308 323 21 29 273 282 174 170 180 181 178 172 173 185 190 176 165 162 166 168 168 169 170 170 164 163 160 159 159 163 160 164 175 177 169 163 169 169 153 141 142 150 121 125 127 122
253 288 299 294 303 342 318 276 285 241 184 184 180 176 173 180 189 177 166 157 154 161 167 169 168 170 165 158 148 141 148 157 159 169 175 173 176 168 162 160 158 151 141 144 140 122 97 104 120
197 259 280 277 292 313 297 291 290 265 194 188 183 181 181 186 175 155 150 154 153 163 171 174 172 169 165 163 166 167 174 170 173 183 179 176 172 167 164 162 157 158 158 160 147 122 112 97 104
217 269 281 294 330 314 298 299 293 256 217 208 197 191 186 178 168 160 156 159 164 175 179 181 181 175 174 173 171 166 158 161 171 176 173 176 170 171 173 166 167 164 149 144 149 134 121 102 106
237 226 250 267 325 356 328 316 296 287 307 241 203 195 187 185 181 173 167 170 171 178 184 186 184 178 174 164 148 136 121 111 141 170 172 182 174 175 171 170 164 163 158 161 163 154 144 139 107
254 229 222 247 306 297 20 283 286 277 299 257 224 204 196 187 178 177 178 180 182 185 183 181 177 174 170 163 163 165 167 174 183 177 173 171 173 173 171 167 165 162 159 159 166 160 150 141 144
221 223 206 224 193 283 330 199 282 300 274 258 237 212 196 191 183 182 184 186 182 178 177 177 172 172 168 168 173 176 172 175 162 154 163 169 171 174 170 164 162 161 162 161 157 151 152 147 152
200 64 49 49 77 275 257 188 276 248 233 250 235 211 193 188 186 180 175 170 169 165 164 164 166 169 166 167 172 177 172 167 161 163 169 169 167 169 169 166 165 165 164 165 162 158 158 152 144
132 95 27 357 12 250 264 211 252 255 235 230 230 210 186 180 184 177 171 168 165 161 159 158 162 164 163 166 175 180 177 176 176 173 174 170 170 176 178 172 169 168 169 165 157 155 159 158 155
176 148 161 194 219 268 307 240 255 262 244 218 197 181 171 178 174 172 174 170 166 161 159 159 163 164 167 173 181 181 178 177 178 178 172 176 180 178 170 170 172 171 166 162 155 151 161 161 162
151 181 166 136 154 278 282 282 301 285 282 223 185 165 173 179 171 167 166 166 165 163 165 164 163 164 169 174 176 178 178 178 178 177 172 172 172 166 167 170 170 167 163 159 154 155 161 157 163
144 143 108 127 148 220 282 279 262 279 269 241 192 181 183 172 171 165 166 163 162 162 160 159 163 169 172 173 177 180 181 180 177 174 175 176 173 165 163 166 164 162 161 158 153 151 156 153 158
126 114 114 116 147 154 219 267 233 233 231 218 207 187 180 174 174 171 166 161 156 154 156 160 166 169 172 175 176 176 177 175 170 175 181 176 171 166 167 168 165 166 165 162 161 161 159 160 159
160 162 146 146 186 161 166 262 276 246 235 206 199 175 169 168 165 163 161 159 161 163 166 169 173 179 181 174 172 175 174 170 171 180 179 169 167 169 169 165 165 171 170 168 169 167 165 165 166